"Pseudo-MPEC" for P12oZg0

Created 2026 Aug 8 12:35:07 UT using Find_Orb

Click here for an explanation of pseudo-MPECs

 
 Astrometry: 
     P12oZg0 0C2026 08 08.34106217 02 32.830+26 50 46.93   ~88CK 20.12GVNEOCPF51
     P12oZg0 0C2026 08 08.35325917 02 40.906+26 49 22.50   ~88CK 20.18GVNEOCPF51
     P12oZg0*0C2026 08 08.36539117 02 48.891+26 47 58.83   ~88Bo 19.67wXNEOCPF51
     P12oZg0 0C2026 08 08.37770817 02 57.040+26 46 33.53   ~88Bo 20.21wXNEOCPF51

Station data:
(F51) Pan-STARRS 1, Haleakala  (N20.707234 W156.255910)  US/Hawaii.
   Observers J. Herman, T. Lowe, P. Minguez, A. Schultz, I. Smith. Measurers
   K. Chambers, T. de Boer, J. Fairlamb, H. Gao, M. Huber, C.-C. Lin, E.
   Magnier, Y. Ramanjooloo, R. Wainscoat, R. Weryk. 1.8-m Ritchey-Chrétien +
   CCD.

Orbital elements:  P12oZg0
   Perihelion 2026 Jun 19.466887 +/- 21.6 TT = 11:12:19.0 (JD 2461210.966887)
Epoch 2026 Aug  8.0 TT = JDT 2461260.5   Earth MOID: 0.0488      AutoNEOCP
M  20.801032446 +/- 40              (J2000 ecliptic)
n   0.419941954 +/- 0.44            Peri.  250.370617 +/- 80
a   1.766077965 +/- 1.23            Node   307.828064 +/- 60
e   0.77811882 +/- 0.23             Incl.   64.592581 +/- 20
P   2.347/857.245d         H 21.79  G  0.15   U 12.2  SR
q 0.391859462 +/- 0.236    Q 3.140296468 +/- 23
From 4 observations 2026 Aug. 8 (52.8 min); mean residual 0".14
Residuals in arcseconds: 
260808 F51  .04+  .05-    260808 F51  .28-  .18+    
260808 F51  .08+  .02-    260808 F51  .16+  .11-    

Ephemerides (geocentric):
Date (UTC) HH   RA             Dec           delta  r     elong  mag " sig PA
---- --------  ------------   ------------  ------ ------ -----  --- --------
2026 08 08 13  17 04 48.024   +26 28 22.20  .15187 1.0666 106.3 20.2  129 107
2026 08 08 14  17 05 14.682   +26 23 52.01  .15276 1.0672 106.4 20.2  142 110
2026 08 08 15  17 05 41.002   +26 19 24.61  .15365 1.0678 106.5 20.2  154 112
2026 08 08 16  17 06 06.992   +26 14 59.95  .15454 1.0684 106.6 20.2  167 113
2026 08 08 17  17 06 32.657   +26 10 38.00  .15543 1.0690 106.7 20.2  179 113
2026 08 08 18  17 06 58.004   +26 06 18.71  .15633 1.0696 106.8 20.2  191 108
2026 08 08 19  17 07 23.037   +26 02 02.05  .15722 1.0702 106.9 20.2  209  83
2026 08 08 20  17 07 47.764   +25 57 47.99  .15811 1.0708 107.0 20.2  243  53
2026 08 08 21  17 08 12.190   +25 53 36.47  .15901 1.0714 107.1 20.2  286  46
2026 08 08 22  17 08 36.319   +25 49 27.47  .15991 1.0720 107.2 20.2  334  44
2026 08 08 23  17 09 00.159   +25 45 20.96  .16080 1.0726 107.2 20.3  385  44
2026 08 09 00  17 09 23.713   +25 41 16.89  .16170 1.0732 107.3 20.3  440  44
2026 08 09 01  17 09 46.987   +25 37 15.24  .16260 1.0738 107.4 20.3  497  44
2026 08 09 02  17 10 09.986   +25 33 15.96  .16349 1.0744 107.5 20.3  558  44
2026 08 09 03  17 10 32.715   +25 29 19.03  .16439 1.0750 107.6 20.3  621  45
2026 08 09 04  17 10 55.178   +25 25 24.42  .16529 1.0756 107.7 20.3  688  45
2026 08 09 05  17 11 17.381   +25 21 32.08  .16619 1.0762 107.7 20.3  756  45
2026 08 09 06  17 11 39.328   +25 17 41.99  .16709 1.0768 107.8 20.3  828  45
2026 08 09 07  17 12 01.023   +25 13 54.12  .16799 1.0774 107.9 20.3  902  46
2026 08 09 08  17 12 22.471   +25 10 08.44  .16889 1.0780 108.0 20.3  979  46
2026 08 09 09  17 12 43.675   +25 06 24.92  .16979 1.0786 108.0 20.4 1057  46
2026 08 09 10  17 13 04.641   +25 02 43.52  .17070 1.0792 108.1 20.4 1139  47
2026 08 09 11  17 13 25.372   +24 59 04.22  .17160 1.0798 108.2 20.4 1222  47
2026 08 09 12  17 13 45.872   +24 55 26.99  .17250 1.0804 108.3 20.4 1308  47
2026 08 09 13  17 14 06.146   +24 51 51.80  .17340 1.0810 108.3 20.4 1397  47
2026 08 09 14  17 14 26.196   +24 48 18.63  .17431 1.0815 108.4 20.4 1487  47
2026 08 09 15  17 14 46.027   +24 44 47.44  .17521 1.0821 108.5 20.4 1579  47
2026 08 09 16  17 15 05.642   +24 41 18.21  .17612 1.0827 108.5 20.4 1674  48
2026 08 09 17  17 15 25.045   +24 37 50.92  .17702 1.0833 108.6 20.4 1771  48
2026 08 09 18  17 15 44.240   +24 34 25.53  .17793 1.0839 108.7 20.4 1869  48
2026 08 09 19  17 16 03.229   +24 31 02.02  .17883 1.0845 108.7 20.4 1970  48
2026 08 09 20  17 16 22.017   +24 27 40.37  .17974 1.0851 108.8 20.5 2072  48
2026 08 09 21  17 16 40.606   +24 24 20.55  .18065 1.0857 108.9 20.5 2177  48
2026 08 09 22  17 16 59.000   +24 21 02.53  .18155 1.0863 108.9 20.5 2283  48
2026 08 09 23  17 17 17.201   +24 17 46.30  .18246 1.0869 109.0 20.5 2392  48
2026 08 10 00  17 17 35.214   +24 14 31.83  .18337 1.0875 109.0 20.5 2502  49
2026 08 10 01  17 17 53.041   +24 11 19.10  .18428 1.0881 109.1 20.5 2614  49
2026 08 10 02  17 18 10.684   +24 08 08.08  .18519 1.0887 109.2 20.5 2728  49
2026 08 10 03  17 18 28.147   +24 04 58.75  .18610 1.0893 109.2 20.5 2843  49
2026 08 10 04  17 18 45.433   +24 01 51.09  .18701 1.0898 109.3 20.5 2961  49
2026 08 10 05  17 19 02.544   +23 58 45.08  .18792 1.0904 109.3 20.5 3080  49
2026 08 10 06  17 19 19.484   +23 55 40.69  .18883 1.0910 109.4 20.5 3201  49
2026 08 10 07  17 19 36.254   +23 52 37.91  .18974 1.0916 109.4 20.6 3324  49
2026 08 10 08  17 19 52.858   +23 49 36.71  .19065 1.0922 109.5 20.6 3448  49
2026 08 10 09  17 20 09.298   +23 46 37.08  .19156 1.0928 109.6 20.6 3575  49
2026 08 10 10  17 20 25.576   +23 43 38.98  .19247 1.0934 109.6 20.6 3702  49
2026 08 10 11  17 20 41.695   +23 40 42.42  .19338 1.0940 109.7 20.6 3832  49
2026 08 10 12  17 20 57.658   +23 37 47.36  .19429 1.0946 109.7 20.6 3963  49